• Join FlightAware (Why Join?)
  • Login
  • US Flag 
09:56PM EDT


 

Airport Tracker/Info


-or-


 

Live Flight TrackerFlight Track Log ✈ DAL268 ✈ 15-Apr-2013 ✈ KATL - KJFK

Flight Track Log - Related Links

Times and Time Zones

All times are in EDT time to prevent confusion due to time zone crossing. See the DAL268 flight status page for this flight to view local times or setup timezone preferences in your user account.

Time Position Orientation Groundspeed Altitude Reporting Facility
EDT Latitude Longitude Course Direction KTS MPH feet Rate Location/Type
06:26PM 33.6331 -84.3706 64° Northeast 441 507 2,500  Level Atlanta Center
06:27PM 33.6333 -84.3333 89° East 233 268 3,300 2,040 Climbing Atlanta TRACON
06:28PM 33.6333 -84.2333 90° East 281 323 5,500 2,460 Climbing Atlanta TRACON
06:29PM 33.6336 -84.0911 90° East 317 365 9,600 2,160 Climbing Atlanta Center
06:30PM 33.6397 -83.9814 86° East 317 365 11,100 1,440 Climbing Atlanta Center
06:31PM 33.6481 -83.8567 85° East 351 404 12,500 1,680 Climbing Atlanta Center
06:32PM 33.6646 -83.5976 64° Northeast  Level FlightAware Approximate
06:32PM 33.6561 -83.7169 86° East 391 450 14,500  Level Atlanta Center
06:33PM 33.6828 -83.5819 77° East 414 476 16,700 1,920 Climbing Atlanta Center
06:34PM 33.7364 -83.4492 64° Northeast 414 476 18,400 1,680 Climbing Atlanta Center
06:35PM 33.7900 -83.3139 64° Northeast 441 507 20,100 1,500 Climbing Atlanta Center
06:36PM 33.8433 -83.1708 66° East 455 524 21,500 1,260 Climbing Atlanta Center
06:37PM 33.8756 -83.0331 74° East 468 539 22,700 1,320 Climbing Atlanta Center
06:38PM 33.9139 -82.8697 74° East 482 555 24,200 1,440 Climbing Atlanta Center
06:39PM 33.9561 -82.7114 72° East 495 570 25,600 1,440 Climbing Atlanta Center
06:40PM 33.9919 -82.5506 75° East 495 570 27,100 1,500 Climbing Atlanta Center
06:41PM 34.0336 -82.3944 72° East 495 570 28,600 1,320 Climbing Atlanta Center
06:42PM 34.0942 -82.2453 64° Northeast 495 570 29,800 1,200 Climbing Atlanta Center
06:43PM 34.1567 -82.1008 62° Northeast 483 556 31,000 960 Climbing Atlanta Center
06:44PM 34.2211 -81.9561 62° Northeast 483 556 31,800 660 Climbing Atlanta Center
06:45PM 34.2856 -81.8139 61° Northeast 483 556 32,400 600 Climbing Atlanta Center
06:46PM 34.3475 -81.6686 63° Northeast 483 556 33,000 300 Climbing Atlanta Center
06:47PM 34.4092 -81.5236 63° Northeast 483 556 33,000  Level Atlanta Center
06:48PM 34.4708 -81.3781 63° Northeast 478 550 33,000  Level Atlanta Center
06:49PM 34.5344 -81.2322 62° Northeast 478 550 33,000  Level Atlanta Center
06:50PM 34.5936 -81.0892 63° Northeast 478 550 33,000  Level Atlanta Center
06:51PM 34.6589 -80.9403 62° Northeast 484 557 33,000  Level Atlanta Center
06:52PM 34.7236 -80.7864 63° Northeast 484 557 33,000  Level Atlanta Center
06:53PM 34.7864 -80.6372 63° Northeast 482 555 33,000  Level Atlanta Center
06:56PM 34.9283 -80.2989 63° Northeast 510 587 33,000  Level Washington Center
06:57PM 34.9881 -80.1553 63° Northeast 490 564 33,000  Level Washington Center
06:58PM 35.0519 -80.0117 61° Northeast 496 571 33,000  Level Washington Center
06:59PM 35.1136 -79.8653 63° Northeast 496 571 33,000  Level Washington Center
07:00PM 35.1731 -79.7186 64° Northeast 496 571 33,000  Level Washington Center
07:01PM 35.2344 -79.5692 63° Northeast 501 577 33,000  Level Washington Center
07:02PM 35.2933 -79.4244 63° Northeast 501 577 33,000  Level Washington Center
07:03PM 35.3564 -79.2772 62° Northeast 501 577 33,000  Level Washington Center
07:04PM 35.4175 -79.1269 63° Northeast 496 571 33,000  Level Washington Center
07:05PM 35.4736 -78.9842 64° Northeast 471 542 33,000  Level Washington Center
07:06PM 35.5319 -78.8411 63° Northeast 471 542 33,000  Level Washington Center
07:07PM 35.5903 -78.6903 65° Northeast 480 552 33,000  Level Washington Center
07:08PM 35.6611 -78.5294 62° Northeast 480 552 33,000  Level Washington Center
07:09PM 35.7167 -78.3781 66° East 480 552 33,000  Level Washington Center
07:10PM 35.7744 -78.2314 64° Northeast 480 552 33,000  Level Washington Center
07:11PM 35.8317 -78.0847 64° Northeast 480 552 33,000  Level Washington Center
07:12PM 35.8889 -77.9381 64° Northeast 480 552 33,000  Level Washington Center
07:13PM 35.9461 -77.7883 65° Northeast 480 552 33,000  Level Washington Center
07:14PM 36.0133 -77.6489 59° Northeast 473 544 33,000  Level Washington Center
07:15PM 36.0925 -77.5197 53° Northeast 467 537 33,000  Level Washington Center
07:16PM 36.1594 -77.3800 59° Northeast 467 537 33,000  Level Washington Center
07:17PM 36.1597 -77.2128 90° East 457 526 33,000  Level Washington Center
07:18PM 36.1472 -77.0478 95° East 462 532 33,000  Level Washington Center
07:19PM 36.1367 -76.8753 94° East 473 544 33,000  Level Washington Center
07:20PM 36.1736 -76.7164 74° East 475 547 33,000  Level Washington Center
07:21PM 36.2644 -76.6147 42° Northeast 422 486 33,000  Level Washington Center
07:22PM 36.3756 -76.5464 26° Northeast 412 474 33,000  Level Washington Center
07:23PM 36.4844 -76.4806 26° Northeast 422 486 33,000  Level Washington Center
07:24PM 36.5914 -76.4119 27° Northeast 422 486 33,000  Level Washington Center
07:25PM 36.7025 -76.3433 26° Northeast 427 491 33,000  Level Washington Center
07:26PM 36.8092 -76.2717 28° Northeast 427 491 33,000  Level Washington Center
07:27PM 36.9161 -76.1997 28° Northeast 427 491 33,000  Level Washington Center
07:28PM 37.0206 -76.1433 23° Northeast 432 497 33,000  Level Washington Center
07:29PM 37.1272 -76.0711 28° Northeast 432 497 33,000  Level Washington Center
07:30PM 37.2361 -76.0014 27° Northeast 432 497 33,000  Level Washington Center
07:31PM 37.3447 -75.9314 27° Northeast 432 497 33,000  Level Washington Center
07:32PM 37.4533 -75.8639 26° Northeast 427 491 33,000  Level Washington Center
07:33PM 37.5619 -75.7961 26° Northeast 427 491 33,000  Level Washington Center
07:34PM 37.6683 -75.7256 28° Northeast 427 491 33,000  Level Washington Center
07:35PM 37.7769 -75.6522 28° Northeast 427 491 33,000  Level Washington Center
07:36PM 37.8853 -75.5867 26° Northeast 427 491 33,000  Level Washington Center
07:37PM 37.9936 -75.5128 28° Northeast 427 491 33,000  Level Washington Center
07:38PM 38.1022 -75.4414 27° Northeast 427 491 33,000  Level Washington Center
07:39PM 38.2125 -75.3778 24° Northeast 427 491 33,000  Level Washington Center
07:40PM 38.3292 -75.2981 28° Northeast 427 491 33,000  Level Washington Center
07:41PM 38.4353 -75.2258 28° Northeast 427 491 33,000  Level Washington Center
07:42PM 38.5456 -75.1617 24° Northeast 427 491 33,000  Level Washington Center
07:43PM 38.6536 -75.0867 28° Northeast 427 491 33,000  Level Washington Center
07:44PM 38.7617 -75.0219 25° Northeast 427 491 33,000  Level Washington Center
07:45PM 38.8697 -74.9492 28° Northeast 427 491 33,000 -360 Level Washington Center
07:46PM 38.9778 -74.8814 26° Northeast 427 491 32,300 -1,740 Descending Washington Center
07:47PM 39.0836 -74.8108 27° Northeast 427 491 29,600 -2,820 Descending Washington Center
07:48PM 39.1808 -74.7133 38° Northeast 433 498 26,700 -2,220 Descending Washington Center
07:48PM 39.2692 -74.6136 41° Northeast 441 507 25,300 -1,800 Descending New York Center
07:49PM 39.3492 -74.5294 39° Northeast 441 507 23,200 -2,460 Descending New York Center
07:51PM 39.4461 -74.4244 40° Northeast 417 480 20,400 -2,400 Descending New York Center
07:51PM 39.5306 -74.3292 41° Northeast 406 467 18,400 -1,200 Descending New York Center
07:53PM 39.6058 -74.2494 39° Northeast 391 450 18,100 -1,500 Descending New York Center
07:53PM 39.6942 -74.1514 40° Northeast 386 444 15,500 -2,340 Descending New York Center
07:54PM 39.7736 -74.0661 40° Northeast 374 430 13,500 -1,980 Descending New York Center
07:56PM 39.8533 -73.9806 39° Northeast 364 419 11,500 -1,260 Descending New York Center
07:57PM 39.9317 -73.9272 28° Northeast 352 405 11,000 -300 Descending New York Center
07:58PM 40.0083 -73.8739 28° Northeast 321 369 11,000 -960 Level New York Center
07:58PM 40.0850 -73.8067 34° Northeast 299 344 9,200 -1,740 Descending New York Center
07:59PM 40.1492 -73.7417 38° Northeast 294 338 7,700 -1,560 Descending New York Center
08:00PM 40.1833 -73.7167 29° Northeast 291 335 7,100 -1,440 Descending New York TRACON
08:01PM 40.2500 -73.7667 330° Northwest 267 307 5,800 -1,440 Descending New York TRACON
08:02PM 40.3000 -73.8333 315° West 261 300 4,300 -1,440 Descending New York TRACON
08:03PM 40.3500 -73.9000 315° West 265 305 3,000 -780 Descending New York TRACON
08:04PM 40.3842 -73.9236 332° Northwest 256 295 3,000  Level New York Center
08:04PM 40.4167 -73.9333 347° North 256 295 3,000  Level New York TRACON
08:05PM 40.4833 -73.9500 349° North 229 264 3,000 -540 Level New York TRACON
08:06PM 40.5500 -73.9500 360° North 230 265 2,000 -720 Descending New York TRACON
08:07PM 40.5833 -73.9167 37° Northeast 202 232 1,600 -420 Descending New York TRACON
08:08PM 40.6333 -73.8833 27° Northeast 182 209 1,200 -480 Descending New York TRACON
08:09PM 40.6667 -73.8500 37° Northeast 147 169 700 3,720 Descending New York TRACON
08:10PM 40.6775 -73.7811 78° East 115 132 11,000 3,900 Climbing New York Center
08:11PM 40.6889 -73.7406 70° East 115 132 11,000  Level New York Center
08:12PM 40.7003 -73.7000 70° East 115 132 11,000  Level New York Center
08:14PM 40.7117 -73.6594 70° East 115 132 11,000  Level New York Center
08:15PM 40.7164 -73.6433 69° East 115 132 11,000  Level New York Center
08:16PM 40.6610 -73.7414 233° Southwest  Level Estimated
08:23PM 40.6398 -73.7789 233° Southwest  Level Estimated
08:24PM 40.6398 -73.7789 72° East  Level Estimated